Regional Weather Roundup
Issued by NWS

Home | Current Version | Previous Version | Text Only | Print | Product List | Glossary On
Versions: 1 2 3 4 5 6 7 8 9 10 11 12 13 14 15 16 17 18 19 20 21 22 23 24 25 26 27 28 29 30 31 32 33 34 35 36 37 38 39 40 41 42 43 44 45 46 47 48 49 50
000
ASUS43 KFSD 042002
RWRSD

WEATHER ROUNDUP FOR SOUTH DAKOTA
NATIONAL WEATHER SERVICE SIOUX FALLS SD
300 PM CDT FRI SEP 04 2015

NOTE: "FAIR" INDICATES FEW OR NO CLOUDS BELOW 12,000 FEET WITH NO
SIGNIFICANT WEATHER AND/OR OBSTRUCTIONS TO VISIBILITY.


SDZ001>005-009-010-012>017-042100-
NORTHWEST AND NORTH CENTRAL SOUTH DAKOTA

CITY           SKY/WX    TMP DP  RH WIND       PRES   REMARKS
BUFFALO          N/A     86  57  37 SE7       29.77S
FAITH            N/A     92  51  24 SE12      29.79
MOBRIDGE       SUNNY     89  65  44 S7        29.74F
$$

SDZ012>016-024>037-041>051-057-063-072>074-042100-
SOUTHWEST AND SOUTH CENTRAL SOUTH DAKOTA

CITY           SKY/WX    TMP DP  RH WIND       PRES   REMARKS
RAPID CTY ARPT SUNNY     88  53  30 NE5       29.81F
PIERRE         SUNNY     90  65  43 SE14      29.72F
CUSTER         SUNNY     84  41  21 SW8       29.97F
PHILIP         SUNNY     92  58  31 SE7       29.76S
PINE RIDGE     MOSUNNY   92  45  19 VRB5      29.82F
WINNER         FAIR      92  60  34 MISG      29.77S
$$

SDZ004>011-016>023-039-040-042100-
NORTHEAST SOUTH DAKOTA

CITY           SKY/WX    TMP DP  RH WIND       PRES   REMARKS
ABERDEEN       SUNNY     87  69  54 S14       29.77F
WATERTOWN      PTSUNNY   82  67  60 S14G21    29.84R
BROOKINGS      CLOUDY   N/A N/A N/A SE17G24   29.85F
$$

SDZ017-020-022-023-036>040-048>070-042100-
SOUTHEAST SOUTH DAKOTA

CITY           SKY/WX    TMP DP  RH WIND       PRES   REMARKS
SIOUX FALLS    PTSUNNY   78  70  76 SE12      29.86S
HURON          SUNNY     86  70  58 SE17      29.75F
CHAMBERLAIN    SUNNY     88  68  52 S7        29.76S
MITCHELL       SUNNY     91  67  44 S15G28    29.77S
YANKTON        MOSUNNY   84  72  65 SE14      29.79S
$$

ABBREVIATIONS USED IN REMARKS
   TC - TEMPERATURE IN CELSIUS
  WCI - WIND CHILL INDEX
   HX - HEAT INDEX
  VSB - VISIBILITY



USA.gov is the U.S. government's official web portal to all federal, state and local government web resources and services.